[[{"header":{"parameterUnit":"m.s-1","parameterCategory":2,"la1":30.2991,"la2":30.254,"lo1":-89.0895,"lo2":-89.0444,"dy":0.0017,"dx":0.0017,"nx":28,"ny":28,"refTime":"2024-07-13T03:00:00:Z","depth":"0","parameterNumber":2,"parameterNumberName":"U-component_of_CURRENTS"},"data":[0,0,0,0,0,0,0,0,0,0,0,0,0,0,0,0,0,0,0,0,0,0,0,0,0,0,0,0,0,0,0,0,0,0,0,0,0,0,0,0,0,0,0,0,0,0,0,0,0,0,0,0,0,0,0,0,0,0,0.1455,0.1455,0,0.1451,0.145,0.145,0.1428,0.1428,0.1428,0.1427,0.139,0.139,0.1389,0,0,0,0,0,0,0,0,0,0,0,0,0,0.141,0.1411,0.1455,0.1455,0.1455,0.1451,0.145,0.145,0.1428,0.1428,0.1427,0.1427,0.1391,0.139,0.1389,0,0,0,0,0,0,0,0,0,0,0,0,0,0.1418,0.1411,0.1455,0.1445,0.1445,0.1451,0.145,0.145,0.1428,0.1428,0.1427,0.1427,0.1391,0.139,0.1389,0.1392,0,0,0.1386,0.1385,0,0,0,0,0,0,0,0,0.1418,0.1419,0.1447,0.1446,0.1445,0.1442,0.1421,0.143,0.1428,0.1432,0.1427,0.1427,0.1406,0.1404,0.1401,0.139,0.1389,0.1386,0.1385,0.1385,0.1384,0,0,0,0,0,0,0,0.1417,0.1419,0.1451,0.1447,0.1446,0.143,0.1431,0.1423,0.1419,0.1432,0.1431,0.1434,0.1405,0.1403,0.14,0.1388,0.1386,0.1385,0.1384,0.1384,0.1454,0.1456,0,0,0,0,0,0,0.1425,0.1419,0.1451,0.1451,0.1433,0.1432,0.1432,0.1441,0.142,0.1417,0.1435,0.1433,0.1405,0.1402,0.1399,0.1474,0.1385,0.1384,0.1383,0.1451,0.1454,0.1457,0,0,0,0,0,0,0.1424,0.1428,0.1451,0.1436,0.1438,0.1433,0.1443,0.1441,0.1444,0.1423,0.1419,0.144,0.1404,0.14,0.1424,0.147,0.1383,0.1382,0.1449,0.1452,0.1456,0.1577,0,0,0,0,0,0,0.1423,0.1428,0.1438,0.1437,0.144,0.1475,0.1444,0.1442,0.1447,0.1446,0.1426,0.1422,0.1403,0.1426,0.1423,0.1467,0.1381,0.1445,0.145,0.1455,0.157,0.1585,0.1597,0,0,0,0,0,0.1421,0.1444,0.1439,0.1443,0.1454,0.1477,0.1477,0.1469,0.1448,0.1465,0.1461,0.1423,0.1453,0.1427,0.1423,0.1467,0.1443,0.1449,0.1454,0.1564,0.1582,0.1597,0,0,0,0,0,0,0.1428,0.1444,0.1438,0.1464,0.1477,0.1475,0.1488,0.1476,0.1483,0.1479,0.145,0.1448,0.149,0.1462,0.1433,0.1503,0.1443,0.1448,0.1528,0.1545,0.1558,0.1582,0.1381,0,0,0,0,0,0.1436,0.1459,0.1468,0.149,0.1499,0.1492,0.1498,0.1494,0.1499,0.15,0.1492,0.149,0.1509,0.1512,0.1519,0.1549,0.1572,0.1577,0.159,0.1602,0.1621,0.1704,0.1728,0.1476,0.1475,0.1475,0,0,0.1443,0.1456,0.1467,0.1493,0.1499,0.1529,0.1495,0.1516,0.1545,0.1496,0.1536,0.1536,0.1529,0.1578,0.1592,0.1558,0.1693,0.1609,0.1619,0.1632,0.1713,0.1737,0.1759,0.1479,0.1479,0.1478,0,0,0.1477,0.1484,0.1516,0.1533,0.1554,0.1559,0.1568,0.1578,0.159,0.1626,0.1612,0.165,0.1652,0.1679,0.1686,0.1777,0.1765,0.1768,0.1851,0.1933,0.1954,0.1974,0.2064,0.209,0.177,0.177,0.1771,0,0.1486,0.1524,0.1529,0.1565,0.1586,0.1577,0.1617,0.1633,0.1652,0.1682,0.1655,0.1722,0.171,0.1794,0.1829,0.181,0.1853,0.1788,0.1952,0.1972,0.1989,0.2076,0.2104,0.1777,0.1776,0.1775,0.1775,0,0.1546,0.1573,0.1596,0.164,0.1668,0.17,0.1725,0.1757,0.1764,0.1786,0.1867,0.1872,0.1914,0.1921,0.19,0.2022,0.2014,0.1965,0.1913,0.2022,0.2107,0.2134,0.1786,0.1784,0.1782,0.178,0,0,0.158,0.1627,0.1634,0.1659,0.1708,0.1734,0.1802,0.1867,0.1913,0.1952,0.2031,0.2084,0.209,0.2101,0.2091,0.2157,0.2323,0.2118,0.2119,0.2213,0.2525,0.2581,0.2615,0.2302,0.2307,0.231,0.2544,0,0.1626,0.1688,0.1711,0.1778,0.1813,0.1839,0.19,0.1959,0.2003,0.2077,0.2125,0.2185,0.2157,0.2178,0.2255,0.2296,0.2394,0.2265,0.2401,0.2405,0.2446,0.2648,0.2672,0.2888,0.257,0.2574,0.2577,0,0.1687,0.1716,0.1779,0.184,0.186,0.1899,0.1993,0.2047,0.2153,0.2191,0.2282,0.2304,0.2429,0.2363,0.2552,0.2472,0.2526,0.2556,0.2565,0.2592,0.2512,0.2722,0.2948,0.2786,0.2617,0.2614,0.2611,0,0.1709,0.1772,0.1818,0.1838,0.1905,0.1944,0.1987,0.2084,0.2147,0.2266,0.2329,0.246,0.2532,0.2629,0.271,0.2642,0.2911,0.2813,0.2931,0.2934,0.2971,0.2971,0.3061,0.2974,0.2973,0.2973,0.2972,0,0.1761,0.1801,0.182,0.1845,0.1909,0.1952,0.2041,0.2102,0.2208,0.2302,0.2385,0.2492,0.2602,0.2749,0.2798,0.2989,0.2999,0.3017,0.3026,0.3016,0.3017,0.2884,0.2777,0.2981,0.2979,0.2978,0.2976,0,0.1804,0.1811,0.1861,0.1905,0.1921,0.1968,0.2058,0.2119,0.2219,0.2346,0.239,0.257,0.2776,0.2902,0.308,0.3122,0.3189,0.3311,0.3306,0.3312,0.3242,0.3142,0.3146,0.3073,0.3499,0.3502,0.3505,0,0.1842,0.1863,0.1891,0.1902,0.1922,0.1984,0.2026,0.2119,0.2185,0.2392,0.2456,0.2696,0.2866,0.3197,0.3348,0.3537,0.3329,0.3626,0.3498,0.3318,0.3211,0.2977,0.2895,0.3605,0.3609,0.3611,0.3614,0,0.1901,0.1894,0.191,0.1925,0.1951,0.2003,0.2063,0.2116,0.2235,0.2358,0.2534,0.2687,0.3057,0.3286,0.3563,0.3675,0.3458,0.3687,0.351,0.335,0.3094,0.3001,0.3354,0.3638,0.3635,0.3634,0.3632,0.3631,0.1923,0.1935,0.192,0.1936,0.1962,0.1991,0.2024,0.2104,0.2213,0.2364,0.253,0.2753,0.3113,0.3534,0.3655,0.3811,0.3629,0.3701,0.3616,0.3408,0.3276,0.3698,0.3965,0.3964,0.3964,0.3964,0.3963,0,0.1917,0.1909,0.1929,0.1921,0.1925,0.1956,0.202,0.2046,0.2144,0.2327,0.2483,0.2848,0.3176,0.3476,0.3781,0.371,0.3562,0.3586,0.3244,0.3184,0.3613,0.3552,0.3728,0.3728,0.3729,0.3729,0.3729,0.3729,0.1902,0.1883,0.1881,0.1858,0.1864,0.1868,0.189,0.1961,0.2076,0.2271,0.2456,0.2629,0.2988,0.3332,0.348,0.3487,0.3161,0.3081,0.2923,0.3192,0.3192,0.3191,0.3107,0.3187,0.3186,0.2434,0.2428,0.2424]},{"header":{"parameterUnit":"m.s-1","parameterCategory":2,"la1":30.2991,"la2":30.254,"lo1":-89.0895,"lo2":-89.0444,"dy":0.0017,"dx":0.0017,"nx":28,"ny":28,"refTime":"2024-07-13T03:00:00:Z","depth":"0","parameterNumber":3,"parameterNumberName":"V-component_of_CURRENTS"},"data":[0,0,0,0,0,0,0,0,0,0,0,0,0,0,0,0,0,0,0,0,0,0,0,0,0,0,0,0,0,0,0,0,0,0,0,0,0,0,0,0,0,0,0,0,0,0,0,0,0,0,0,0,0,0,0,0,0,0,0.0076,0.0076,0,0.0058,0.0058,0.0057,0.0005,0.0005,0.0004,0.0003,-0.0078,-0.0079,-0.008,0,0,0,0,0,0,0,0,0,0,0,0,0,0.0091,0.0091,0.0076,0.0076,0.0075,0.0058,0.0058,0.0057,0.0006,0.0004,0.0003,0.0002,-0.0078,-0.0079,-0.0081,0,0,0,0,0,0,0,0,0,0,0,0,0,0.0079,0.0091,0.0076,0.0049,0.0046,0.0058,0.0058,0.0057,0.0006,0.0004,0.0003,0.0002,-0.0077,-0.0079,-0.0081,-0.0063,0,0,-0.0086,-0.0087,0,0,0,0,0,0,0,0,0.0079,0.0078,0.0053,0.0051,0.0048,0.0034,0.0034,0.0014,0.0006,0.0019,0.0003,0.0001,-0.0044,-0.0049,-0.005,-0.0067,-0.007,-0.0087,-0.0088,-0.0089,-0.0089,0,0,0,0,0,0,0,0.008,0.0078,0.0067,0.0053,0.005,0.0047,0.0043,0.003,-0.0006,0.0018,0.0015,0.0016,-0.0046,-0.0048,-0.0053,-0.0071,-0.0087,-0.0088,-0.0089,-0.009,-0.0114,-0.0114,0,0,0,0,0,0,0.0086,0.0079,0.0067,0.0066,0.0062,0.0048,0.0044,0.0039,-0.0005,-0.0012,0.0017,0.0014,-0.0045,-0.0051,-0.0056,-0.0048,-0.0088,-0.009,-0.0091,-0.0115,-0.0114,-0.0114,0,0,0,0,0,0,0.0086,0.0085,0.0068,0.0074,0.0072,0.0049,0.0044,0.0039,0.0031,-0.0005,-0.0014,0.0015,-0.0046,-0.0053,-0.007,-0.0052,-0.0091,-0.0093,-0.0115,-0.0115,-0.0114,-0.0027,0,0,0,0,0,0,0.0087,0.0085,0.0092,0.0074,0.0072,0.0085,0.0046,0.004,0.0036,0.0031,-0.001,-0.0018,-0.0048,-0.0067,-0.0072,-0.0055,-0.0094,-0.0116,-0.0115,-0.0114,-0.003,-0.0023,-0.0017,0,0,0,0,0,0.0087,0.0108,0.0092,0.0091,0.0078,0.0087,0.0086,0.0063,0.0037,0.0048,0.001,-0.0018,-0.0066,-0.0068,-0.0074,-0.0057,-0.0116,-0.0115,-0.0114,-0.0033,-0.0024,-0.0017,0,0,0,0,0,0,0.0131,0.0104,0.0086,0.0099,0.0096,0.0078,0.0093,0.0069,0.005,0.0042,-0.0007,-0.0017,-0.0026,-0.0054,-0.0056,-0.0064,-0.0097,-0.0097,-0.0033,-0.0025,-0.0019,0.0012,-0.0096,0,0,0,0,0,0.0141,0.0142,0.0121,0.0137,0.0135,0.0112,0.0114,0.0097,0.0077,0.0067,0.0035,-0.0,-0.0023,-0.0035,-0.0057,-0.0056,-0.0085,-0.0052,-0.0045,-0.0039,-0.0019,-0.0059,-0.0053,-0.011,-0.011,-0.011,0,0,0.0166,0.0151,0.0154,0.0145,0.014,0.0154,0.011,0.012,0.0128,0.0062,0.0063,0.0025,-0.0018,-0.002,-0.0026,-0.0042,-0.0038,-0.0038,-0.0032,-0.0015,-0.0057,-0.0051,-0.0046,-0.0109,-0.011,-0.011,0,0,0.0219,0.0201,0.0217,0.0214,0.0208,0.0196,0.0199,0.018,0.0168,0.0167,0.0114,0.0091,0.006,0.0034,0.0015,0.0046,-0.0002,0.0031,0.0093,0.0054,0.0059,0.0063,0.0038,0.0039,0.0035,0.0035,0.0035,0,0.0248,0.0259,0.0229,0.0245,0.0254,0.0216,0.0244,0.0233,0.021,0.0208,0.0179,0.0131,0.0091,0.0084,0.0091,0.0064,0.0034,0.0068,0.0064,0.0067,0.007,0.0043,0.0043,0.0039,0.0039,0.0039,0.0038,0,0.0304,0.0316,0.0333,0.0331,0.0341,0.0362,0.0342,0.0342,0.0318,0.0302,0.029,0.0236,0.0206,0.0186,0.015,0.0147,0.0118,0.0077,0.0049,0.0081,0.005,0.0049,0.0046,0.0044,0.0043,0.0042,0,0,0.0353,0.0366,0.0371,0.0388,0.0385,0.0402,0.042,0.0427,0.044,0.0407,0.0421,0.0373,0.0335,0.0311,0.0254,0.0223,0.0209,0.0165,0.0161,0.0151,0.0132,0.0127,0.0124,0.0162,0.0162,0.0162,0.0107,0,0.0403,0.0452,0.0445,0.0501,0.0524,0.0504,0.0526,0.0527,0.0516,0.0518,0.0461,0.0449,0.0384,0.0366,0.0328,0.0241,0.0208,0.0229,0.0095,0.0092,0.0091,0.0124,0.0163,0.0118,0.0104,0.0104,0.0104,0,0.0449,0.0476,0.0536,0.0577,0.0587,0.0614,0.0644,0.0662,0.0653,0.0642,0.0619,0.0566,0.0525,0.0455,0.0343,0.0356,0.026,0.0187,0.0182,0.015,0.0084,0.0081,0.0115,-0.0005,0.0101,0.0101,0.0101,0,0.0485,0.0539,0.0591,0.0603,0.0641,0.0667,0.069,0.0699,0.0724,0.0718,0.0731,0.0665,0.0637,0.0518,0.0377,0.0352,0.0251,0.019,0.0097,0.0095,0.0091,0.009,0.0004,0.0108,0.0108,0.0108,0.0108,0,0.0526,0.0566,0.0612,0.0637,0.0705,0.0718,0.0783,0.0791,0.0815,0.0857,0.0795,0.0807,0.0649,0.0568,0.042,0.0274,0.028,0.0127,0.0086,0.0123,0.0124,-0.0012,-0.0106,0.0106,0.0106,0.0107,0.0107,0,0.0545,0.0572,0.0636,0.0695,0.072,0.0768,0.084,0.0883,0.0902,0.0954,0.0955,0.0913,0.0823,0.0665,0.0482,0.0342,0.0122,0.0126,0.0194,0.0162,-0.0041,-0.0131,-0.0251,-0.0307,0.0019,0.0019,0.0019,0,0.0557,0.0591,0.0676,0.0721,0.0748,0.0822,0.0871,0.0915,0.0964,0.102,0.1046,0.0995,0.0975,0.0736,0.0487,0.0256,0.012,0.0123,0.008,-0.0025,-0.0158,-0.0203,-0.0244,0.0106,0.0107,0.0107,0.0108,0,0.0582,0.0611,0.0664,0.0755,0.082,0.0901,0.0977,0.1027,0.1085,0.114,0.1194,0.1192,0.0997,0.0817,0.0522,0.0337,0.0054,0.0122,-0.001,-0.0102,-0.0135,-0.0216,0.0119,0.0111,0.011,0.011,0.011,0.011,0.06,0.0644,0.0716,0.08,0.0877,0.0971,0.1038,0.1118,0.1213,0.1314,0.1314,0.137,0.1128,0.0744,0.0481,0.0072,0.0036,-0.0049,-0.0151,-0.0186,-0.0232,0.0123,0.0078,0.0078,0.0077,0.0077,0.0076,0,0.0624,0.0679,0.076,0.0865,0.0946,0.0986,0.1103,0.1175,0.1286,0.1411,0.1484,0.1461,0.1127,0.0762,0.0216,-0.0113,-0.0239,-0.0293,-0.0352,-0.0386,-0.0082,-0.007,-0.012,-0.012,-0.012,-0.012,-0.012,-0.0119,0.0643,0.0717,0.0764,0.0902,0.0975,0.109,0.1157,0.1266,0.1379,0.1554,0.1652,0.1708,0.1474,0.0517,-0.0159,-0.0355,-0.058,-0.0634,-0.0764,-0.0565,-0.055,-0.0535,-0.0543,-0.0692,-0.0693,-0.0982,-0.0986,-0.0988]}],[{"header":{"parameterUnit":"m.s-1","parameterCategory":2,"la1":30.2991,"la2":30.254,"lo1":-89.0895,"lo2":-89.0444,"dy":0.0017,"dx":0.0017,"nx":28,"ny":28,"refTime":"2024-07-13T03:00:00:Z","depth":"2","parameterNumber":2,"parameterNumberName":"U-component_of_CURRENTS"},"data":[0,0,0,0,0,0,0,0,0,0,0,0,0,0,0,0,0,0,0,0,0,0,0,0,0,0,0,0,0,0,0,0,0,0,0,0,0,0,0,0,0,0,0,0,0,0,0,0,0,0,0,0,0,0,0,0,0,0,0.1142,0.1142,0,0.1205,0.1206,0.1206,0.121,0.121,0.1209,0.1208,0.1246,0.1248,0.1249,0,0,0,0,0,0,0,0,0,0,0,0,0,0.1046,0.1047,0.1142,0.1142,0.1143,0.1205,0.1206,0.1207,0.1211,0.121,0.1209,0.1208,0.1245,0.1247,0.1249,0,0,0,0,0,0,0,0,0,0,0,0,0,0.1096,0.1048,0.1141,0.1152,0.1154,0.1205,0.1206,0.1207,0.1211,0.121,0.1209,0.1207,0.1245,0.1247,0.125,0.1288,0,0,0.1257,0.1259,0,0,0,0,0,0,0,0,0.1093,0.11,0.115,0.1152,0.1153,0.1198,0.1186,0.1232,0.1211,0.1189,0.1208,0.1207,0.1228,0.1232,0.1247,0.1289,0.1291,0.1258,0.1259,0.126,0.1261,0,0,0,0,0,0,0,0.109,0.1097,0.1167,0.1151,0.1153,0.1161,0.1167,0.1195,0.1214,0.1191,0.1192,0.1199,0.1229,0.1245,0.1248,0.1292,0.1258,0.126,0.1261,0.1262,0.1406,0.1408,0,0,0,0,0,0,0.1082,0.1094,0.1165,0.1169,0.112,0.1164,0.117,0.1185,0.1214,0.1218,0.1199,0.1199,0.1241,0.1245,0.1249,0.1311,0.126,0.1263,0.1264,0.1403,0.1406,0.1408,0,0,0,0,0,0,0.108,0.1088,0.1162,0.1132,0.1142,0.1166,0.1183,0.1187,0.1196,0.1221,0.1224,0.1204,0.124,0.1246,0.129,0.1312,0.1264,0.1266,0.1401,0.1404,0.1407,0.1425,0,0,0,0,0,0,0.1077,0.1087,0.1096,0.1132,0.1143,0.1193,0.1185,0.1189,0.1203,0.1202,0.1226,0.1228,0.124,0.1286,0.1292,0.1314,0.1268,0.1398,0.1402,0.1406,0.1421,0.1428,0.1434,0,0,0,0,0,0.1073,0.109,0.1096,0.1105,0.1155,0.1193,0.12,0.1214,0.1204,0.1216,0.1242,0.1227,0.1317,0.129,0.1297,0.132,0.1396,0.1401,0.1406,0.1418,0.1427,0.1434,0,0,0,0,0,0,0.1051,0.1093,0.1101,0.1128,0.1158,0.1194,0.1207,0.1213,0.1243,0.1241,0.1255,0.1262,0.1314,0.1321,0.129,0.1378,0.1355,0.1362,0.1362,0.137,0.1377,0.1385,0.127,0,0,0,0,0,0.1052,0.1077,0.1114,0.1137,0.115,0.1177,0.1193,0.1204,0.1234,0.1245,0.1262,0.1294,0.1344,0.1357,0.1398,0.1438,0.1461,0.1461,0.1467,0.1472,0.1488,0.1544,0.1556,0.1425,0.1425,0.1425,0,0,0.1049,0.1077,0.109,0.1134,0.1156,0.1188,0.1184,0.121,0.1241,0.1246,0.1288,0.1319,0.1364,0.142,0.1442,0.1422,0.1525,0.1479,0.1483,0.1495,0.1551,0.1563,0.1574,0.1429,0.1428,0.1428,0,0,0.1058,0.1081,0.1103,0.1132,0.1169,0.1193,0.1198,0.1233,0.1252,0.13,0.1323,0.1375,0.1422,0.1472,0.1502,0.1572,0.1564,0.1572,0.1599,0.1654,0.1664,0.1674,0.1721,0.1735,0.1565,0.1565,0.1565,0,0.105,0.1089,0.1115,0.1146,0.1172,0.1193,0.1223,0.1256,0.1301,0.133,0.1315,0.143,0.1458,0.1552,0.1577,0.1586,0.1606,0.1558,0.166,0.167,0.1679,0.1726,0.1741,0.1566,0.1566,0.1566,0.1566,0,0.1079,0.111,0.1126,0.1176,0.1207,0.1238,0.1283,0.1314,0.1332,0.1367,0.145,0.1502,0.157,0.1587,0.1602,0.1691,0.168,0.1665,0.1631,0.1693,0.1739,0.1754,0.1568,0.1568,0.1567,0.1567,0,0,0.1068,0.1132,0.114,0.1165,0.1226,0.1253,0.1312,0.1377,0.1419,0.1465,0.153,0.1622,0.1641,0.1679,0.1705,0.1746,0.1831,0.1727,0.1729,0.1759,0.1944,0.1884,0.1894,0.1818,0.1821,0.1823,0.1948,0,0.1084,0.1133,0.1172,0.1226,0.1255,0.1304,0.1359,0.1419,0.1469,0.1536,0.1604,0.1681,0.1679,0.1714,0.1761,0.1825,0.1872,0.1799,0.1893,0.1897,0.1823,0.1911,0.1607,0.1687,0.1962,0.1965,0.1967,0,0.1106,0.1136,0.1183,0.1252,0.127,0.131,0.1398,0.1454,0.1557,0.1599,0.1682,0.1728,0.1837,0.1805,0.1944,0.1891,0.1926,0.1957,0.1962,0.1912,0.1865,0.1672,0.1704,0.1992,0.199,0.1988,0.1986,0,0.1084,0.115,0.1184,0.1209,0.1287,0.1324,0.1374,0.1471,0.1528,0.1648,0.1697,0.1815,0.1886,0.1953,0.2026,0.1989,0.2153,0.2112,0.2096,0.2092,0.1859,0.1829,0.2206,0.2206,0.2206,0.2206,0.2205,0,0.1092,0.1126,0.1174,0.1196,0.1247,0.1309,0.1383,0.1453,0.1556,0.1637,0.1728,0.1807,0.1922,0.202,0.2063,0.2139,0.2194,0.2131,0.2131,0.1857,0.1828,0.2106,0.2092,0.221,0.2209,0.2208,0.2208,0,0.1078,0.1109,0.1152,0.1217,0.1239,0.1279,0.1377,0.1433,0.1534,0.1642,0.1686,0.1833,0.1974,0.2074,0.2207,0.2191,0.2264,0.2269,0.1943,0.1902,0.2155,0.2141,0.2274,0.2273,0.2272,0.2271,0.2271,0,0.1079,0.1094,0.115,0.1171,0.1204,0.1265,0.1313,0.1416,0.1482,0.1653,0.1706,0.1871,0.1966,0.2138,0.2116,0.2184,0.2299,0.1982,0.1864,0.2181,0.2168,0.2155,0.2143,0.1563,0.1557,0.1552,0.1548,0,0.1074,0.1089,0.1115,0.1152,0.1193,0.1249,0.1325,0.1363,0.1498,0.158,0.1712,0.1795,0.1908,0.1848,0.1925,0.191,0.1943,0.1882,0.2309,0.1595,0.1522,0.1505,0.1514,0.1502,0.1507,0.151,0.1513,0.1514,0.1061,0.1072,0.1094,0.1131,0.1177,0.1225,0.1257,0.1335,0.1414,0.1508,0.1624,0.1658,0.1591,0.1561,0.1577,0.1587,0.169,0.1607,0.1618,0.1636,0.1534,0.1463,0.1413,0.1417,0.142,0.1423,0.1426,0,0.1031,0.1047,0.1074,0.1111,0.114,0.1189,0.1261,0.1269,0.1327,0.1393,0.1465,0.1231,0.1177,0.124,0.1129,0.1132,0.1074,0.1157,0.104,0.1079,0.1115,0.0986,0.0722,0.0722,0.0722,0.0722,0,0,0.1011,0.1016,0.1029,0.1056,0.1094,0.113,0.1161,0.1174,0.1201,0.1139,0.1102,0.11,0.1103,0.0877,0.0822,0.0811,0.0968,0.0775,0.1298,0.1192,0.1231,0.1288,0.1121,0,0,0,0,0]},{"header":{"parameterUnit":"m.s-1","parameterCategory":2,"la1":30.2991,"la2":30.254,"lo1":-89.0895,"lo2":-89.0444,"dy":0.0017,"dx":0.0017,"nx":28,"ny":28,"refTime":"2024-07-13T03:00:00:Z","depth":"2","parameterNumber":3,"parameterNumberName":"V-component_of_CURRENTS"},"data":[0,0,0,0,0,0,0,0,0,0,0,0,0,0,0,0,0,0,0,0,0,0,0,0,0,0,0,0,0,0,0,0,0,0,0,0,0,0,0,0,0,0,0,0,0,0,0,0,0,0,0,0,0,0,0,0,0,0,0.0237,0.0237,0,0.0209,0.0208,0.0208,0.0169,0.0168,0.0168,0.0167,0.0069,0.0067,0.0065,0,0,0,0,0,0,0,0,0,0,0,0,0,0.0262,0.0261,0.0237,0.0237,0.0237,0.0209,0.0208,0.0208,0.0169,0.0168,0.0168,0.0167,0.0069,0.0067,0.0064,0,0,0,0,0,0,0,0,0,0,0,0,0,0.0243,0.0261,0.0237,0.0215,0.0213,0.0209,0.0208,0.0208,0.0169,0.0168,0.0167,0.0167,0.007,0.0067,0.0064,0.0061,0,0,0.0054,0.0053,0,0,0,0,0,0,0,0,0.0244,0.0242,0.0219,0.0217,0.0214,0.0193,0.0181,0.0156,0.0169,0.0184,0.0167,0.0166,0.0105,0.0099,0.0095,0.0056,0.0052,0.0054,0.0052,0.0051,0.005,0,0,0,0,0,0,0,0.0245,0.0243,0.0225,0.0218,0.0216,0.0208,0.0204,0.0176,0.0147,0.0183,0.018,0.0179,0.0103,0.0098,0.0092,0.0051,0.0054,0.0051,0.0049,0.0048,-0.0039,-0.0039,0,0,0,0,0,0,0.0252,0.0244,0.0226,0.0224,0.0229,0.0208,0.0204,0.0199,0.0149,0.0142,0.018,0.0178,0.0104,0.0096,0.0088,0.0047,0.0051,0.0048,0.0046,-0.0038,-0.0039,-0.0039,0,0,0,0,0,0,0.0252,0.025,0.0227,0.0235,0.0231,0.0209,0.0204,0.0199,0.0188,0.0148,0.0139,0.0173,0.0103,0.0093,0.0058,0.0044,0.0046,0.0044,-0.0038,-0.0038,-0.0039,-0.0014,0,0,0,0,0,0,0.0253,0.0251,0.0247,0.0235,0.0231,0.0221,0.0205,0.0199,0.019,0.0186,0.0139,0.013,0.0101,0.0063,0.0055,0.004,0.0041,-0.0037,-0.0038,-0.0039,-0.0014,-0.0014,-0.0013,0,0,0,0,0,0.0254,0.0249,0.0247,0.0245,0.0227,0.0221,0.0218,0.0199,0.019,0.0186,0.0154,0.0131,0.0052,0.006,0.0051,0.0034,-0.0037,-0.0038,-0.0039,-0.0015,-0.0014,-0.0013,0,0,0,0,0,0,0.0253,0.0244,0.0242,0.0233,0.0229,0.0215,0.0208,0.0201,0.0175,0.0166,0.0129,0.0118,0.0081,0.0057,0.0067,0.0007,0.0002,-0.0001,0.0024,0.0024,0.0025,0.0026,0.0038,0,0,0,0,0,0.0255,0.0248,0.0243,0.0236,0.0235,0.0224,0.0219,0.0209,0.0188,0.0176,0.0145,0.0107,0.0072,0.0049,0.0017,-0.0013,-0.0046,-0.0031,-0.0031,-0.003,-0.0035,-0.0096,-0.0101,-0.0042,-0.0042,-0.0042,0,0,0.0252,0.0247,0.0243,0.0236,0.023,0.0226,0.0218,0.021,0.0199,0.0168,0.0138,0.0111,0.0066,0.0031,0.0011,0.0006,-0.0062,-0.0031,-0.003,-0.0036,-0.0098,-0.0103,-0.0109,-0.0043,-0.0043,-0.0043,0,0,0.0247,0.0241,0.0237,0.0235,0.023,0.0224,0.0224,0.0212,0.0197,0.0175,0.0145,0.0112,0.0064,0.0027,0.0002,-0.0012,-0.0053,-0.0024,-0.0026,-0.0084,-0.009,-0.0095,-0.0134,-0.0143,-0.0028,-0.0028,-0.0028,0,0.0243,0.024,0.0235,0.0233,0.0232,0.0225,0.0224,0.0208,0.0185,0.0172,0.0164,0.0093,0.0059,0.0008,0.0001,-0.0012,-0.0046,-0.0023,-0.0084,-0.009,-0.0095,-0.0134,-0.0144,-0.0027,-0.0027,-0.0027,-0.0027,0,0.0238,0.0237,0.0235,0.023,0.0228,0.0227,0.0214,0.02,0.0186,0.0173,0.013,0.0087,0.0044,0.0027,0.0007,-0.005,-0.006,-0.0071,-0.0084,-0.01,-0.0139,-0.015,-0.0025,-0.0026,-0.0026,-0.0026,0,0,0.0224,0.0231,0.023,0.0236,0.0229,0.023,0.0208,0.0193,0.0184,0.0148,0.0128,0.0065,0.005,0.002,-0.001,-0.0062,-0.0126,-0.0084,-0.0087,-0.0119,-0.0248,-0.0166,-0.0171,-0.0152,-0.0154,-0.0155,-0.0255,0,0.0222,0.0228,0.0228,0.0232,0.0236,0.0227,0.0213,0.0196,0.0179,0.0157,0.0104,0.0075,0.0044,0.0028,-0.0032,-0.0093,-0.0156,-0.0097,-0.0231,-0.0235,-0.0158,-0.0181,-0.0204,-0.0287,-0.0266,-0.0268,-0.0269,0,0.0214,0.0223,0.0231,0.0244,0.0245,0.0243,0.0232,0.0222,0.0186,0.0172,0.0128,0.0097,0.0025,0.0002,-0.0136,-0.0097,-0.0178,-0.0232,-0.0238,-0.018,-0.0174,-0.0271,-0.0308,-0.0288,-0.0287,-0.0285,-0.0284,0,0.0211,0.0224,0.0235,0.0238,0.0246,0.0244,0.0246,0.0224,0.0227,0.0184,0.0185,0.0093,0.0064,-0.0058,-0.0151,-0.0159,-0.0292,-0.032,-0.0331,-0.0326,-0.0379,-0.0374,-0.0443,-0.0443,-0.0443,-0.0442,-0.0442,0,0.0207,0.0214,0.0237,0.0242,0.026,0.0258,0.0269,0.0257,0.025,0.0268,0.0198,0.0201,0.0045,-0.0032,-0.0149,-0.0248,-0.0298,-0.0335,-0.0349,-0.0367,-0.0359,-0.0388,-0.038,-0.0446,-0.0445,-0.0445,-0.0444,0,0.0197,0.0208,0.0228,0.025,0.0259,0.0272,0.0303,0.0316,0.0304,0.0325,0.0316,0.0267,0.0183,0.0041,-0.0133,-0.0216,-0.0338,-0.037,-0.0357,-0.0366,-0.0344,-0.0334,-0.0415,-0.0413,-0.0411,-0.041,-0.0409,0,0.0191,0.0202,0.0243,0.0267,0.0279,0.0305,0.0328,0.0336,0.0365,0.0385,0.0406,0.0345,0.0344,0.0147,-0.0036,-0.0222,-0.0281,-0.0365,-0.0383,-0.0337,-0.0343,-0.0336,-0.0328,-0.0461,-0.046,-0.046,-0.0459,0,0.0193,0.021,0.0235,0.029,0.0324,0.0371,0.0413,0.0447,0.0472,0.0516,0.0576,0.0584,0.042,0.0237,0.0006,-0.0115,-0.0331,-0.0354,-0.0353,-0.0424,-0.0378,-0.0384,-0.0376,-0.0455,-0.0455,-0.0456,-0.0456,-0.0456,0.0203,0.0229,0.0275,0.0326,0.0372,0.0448,0.0501,0.0569,0.0654,0.0745,0.073,0.0709,0.0421,0.014,-0.0036,-0.0225,-0.0226,-0.0365,-0.037,-0.0374,-0.0321,-0.027,-0.0318,-0.0318,-0.0317,-0.0317,-0.0317,0,0.0225,0.0262,0.0314,0.0389,0.0454,0.0472,0.0569,0.0648,0.0781,0.0824,0.09,0.0585,0.0406,0.0122,-0.015,-0.0294,-0.0325,-0.0353,-0.0422,-0.0425,-0.0428,-0.0381,-0.0393,-0.0393,-0.0393,-0.0393,0,0,0.0244,0.0296,0.0331,0.0449,0.0507,0.0612,0.0678,0.081,0.0855,0.0891,0.082,0.0768,0.037,0.0111,-0.0111,-0.0245,-0.0273,-0.0245,-0.0175,-0.0231,-0.0231,-0.0433,-0.0361,0,0,0,0,0]}],[{"header":{"parameterUnit":"m.s-1","parameterCategory":2,"la1":30.2991,"la2":30.254,"lo1":-89.0895,"lo2":-89.0444,"dy":0.0017,"dx":0.0017,"nx":28,"ny":28,"refTime":"2024-07-13T03:00:00:Z","depth":"4","parameterNumber":2,"parameterNumberName":"U-component_of_CURRENTS"},"data":[0,0,0,0,0,0,0,0,0,0,0,0,0,0,0,0,0,0,0,0,0,0,0,0,0,0,0,0,0,0,0,0,0,0,0,0,0,0,0,0,0,0,0,0,0,0,0,0,0,0,0,0,0,0,0,0,0,0,0.0295,0.0296,0,0.0335,0.0335,0.0336,0.0389,0.039,0.0391,0.0392,0.0365,0.0364,0.0362,0,0,0,0,0,0,0,0,0,0,0,0,0,0.0243,0.0244,0.0295,0.0296,0.0296,0.0335,0.0335,0.0336,0.0389,0.039,0.0391,0.0392,0.0366,0.0364,0.0362,0,0,0,0,0,0,0,0,0,0,0,0,0,0.0272,0.0244,0.0295,0.0328,0.0331,0.0335,0.0335,0.0336,0.0388,0.039,0.0391,0.0393,0.0366,0.0364,0.0362,0.0319,0,0,0.0354,0.0353,0,0,0,0,0,0,0,0,0.027,0.0274,0.0322,0.0325,0.0329,0.0359,0.0307,0.0327,0.0388,0.0366,0.0392,0.0393,0.0356,0.0355,0.0359,0.0318,0.0317,0.0354,0.0353,0.0352,0.0351,0,0,0,0,0,0,0,0.0268,0.0272,0.031,0.0323,0.0327,0.0332,0.0338,0.0311,0.0351,0.0368,0.0372,0.0377,0.0358,0.0362,0.0359,0.0317,0.0354,0.0352,0.0351,0.035,0.027,0.027,0,0,0,0,0,0,0.0264,0.027,0.0309,0.0312,0.0303,0.0332,0.0339,0.0347,0.0353,0.0356,0.0376,0.0379,0.0365,0.0362,0.0358,0.0337,0.0352,0.035,0.0348,0.0271,0.027,0.0269,0,0,0,0,0,0,0.0263,0.0267,0.0308,0.0292,0.0298,0.0332,0.0341,0.0347,0.0371,0.036,0.0362,0.0395,0.0366,0.0361,0.0346,0.0336,0.0349,0.0346,0.0272,0.0271,0.027,0.0277,0,0,0,0,0,0,0.0261,0.0266,0.0274,0.0292,0.0298,0.0319,0.034,0.0347,0.0371,0.0376,0.0376,0.0374,0.0367,0.0349,0.0343,0.0333,0.0345,0.0273,0.0271,0.027,0.0277,0.0276,0.0275,0,0,0,0,0,0.0259,0.0264,0.0274,0.0279,0.0307,0.0319,0.0323,0.0351,0.037,0.0378,0.0377,0.0375,0.0337,0.0347,0.034,0.0328,0.0273,0.0272,0.027,0.0278,0.0276,0.0275,0,0,0,0,0,0,0.0248,0.027,0.0282,0.0295,0.0309,0.0328,0.0339,0.0356,0.0363,0.0371,0.0365,0.0362,0.0343,0.0332,0.0343,0.0301,0.0304,0.0301,0.0312,0.0311,0.0309,0.0324,0.0343,0,0,0,0,0,0.0246,0.0258,0.0276,0.0288,0.0296,0.0319,0.0329,0.0347,0.0354,0.0362,0.0362,0.0351,0.0325,0.0319,0.0298,0.0273,0.0276,0.0261,0.0259,0.0259,0.0265,0.0253,0.0252,0.0264,0.0264,0.0264,0,0,0.0244,0.0259,0.0266,0.0286,0.0302,0.0312,0.033,0.0348,0.0355,0.0352,0.0361,0.0345,0.0317,0.0294,0.0284,0.0288,0.0258,0.0257,0.0256,0.0264,0.0251,0.025,0.0249,0.0263,0.0263,0.0264,0,0,0.0245,0.0261,0.0271,0.0283,0.0306,0.0314,0.0322,0.0344,0.0356,0.0352,0.0348,0.0332,0.0305,0.0286,0.027,0.0246,0.025,0.0236,0.0244,0.0231,0.0231,0.023,0.0246,0.0246,0.0238,0.0238,0.0238,0,0.0246,0.0261,0.0274,0.0288,0.03,0.0317,0.0329,0.0333,0.0348,0.0348,0.0357,0.032,0.0301,0.0264,0.0259,0.0244,0.0249,0.0254,0.0232,0.0231,0.023,0.0246,0.0247,0.0238,0.0238,0.0238,0.0238,0,0.0248,0.0268,0.0275,0.0297,0.0307,0.032,0.0327,0.0336,0.0348,0.0351,0.0332,0.0307,0.0292,0.0272,0.0259,0.0236,0.0246,0.0231,0.024,0.023,0.0247,0.0248,0.0238,0.0238,0.0238,0.0238,0,0,0.0237,0.0271,0.0278,0.0296,0.0316,0.0326,0.0327,0.0333,0.0342,0.0336,0.034,0.0293,0.0296,0.0277,0.0255,0.0241,0.0241,0.0239,0.0238,0.0264,0.0238,0.0252,0.0254,0.0224,0.0223,0.0223,0.0258,0,0.0241,0.0271,0.0282,0.0309,0.0325,0.0337,0.0339,0.0343,0.0345,0.0349,0.0318,0.0311,0.0291,0.0289,0.0269,0.0245,0.0241,0.0235,0.0237,0.0237,0.0257,0.0254,0.0222,0.0258,0.0259,0.0259,0.0259,0,0.024,0.0264,0.0294,0.0327,0.0335,0.0349,0.0365,0.0369,0.0363,0.0365,0.0352,0.034,0.0316,0.0303,0.0273,0.0272,0.0262,0.0245,0.0245,0.0256,0.0251,0.0266,0.026,0.026,0.026,0.026,0.026,0,0.0231,0.0271,0.0299,0.0311,0.0345,0.036,0.0374,0.0379,0.0385,0.0384,0.0394,0.0363,0.0363,0.033,0.0301,0.0294,0.0273,0.0257,0.0261,0.0263,0.024,0.024,0.0241,0.0241,0.0241,0.0241,0.0241,0,0.0226,0.025,0.0305,0.0321,0.0352,0.0373,0.0398,0.0403,0.0416,0.042,0.0412,0.0393,0.0371,0.0353,0.0317,0.0298,0.029,0.0271,0.0269,0.0243,0.0243,0.0242,0.0241,0.0242,0.0242,0.0242,0.0242,0,0.0206,0.0244,0.0281,0.0333,0.0352,0.0375,0.0419,0.0429,0.045,0.0457,0.0462,0.0436,0.041,0.0392,0.0348,0.0335,0.0301,0.0295,0.0294,0.029,0.0302,0.0302,0.0317,0.0318,0.0319,0.0319,0.0319,0,0.0196,0.0214,0.0287,0.0314,0.0343,0.0384,0.0405,0.0438,0.0446,0.0458,0.0449,0.0447,0.0425,0.0379,0.0348,0.0326,0.0309,0.0326,0.0293,0.0312,0.0308,0.0307,0.0305,0.032,0.0321,0.0321,0.0321,0,0.0167,0.0202,0.0234,0.0298,0.0339,0.0371,0.0406,0.0409,0.0437,0.0474,0.0438,0.0424,0.0404,0.036,0.0371,0.033,0.0331,0.0332,0.033,0.0299,0.0315,0.0311,0.0309,0.0323,0.0322,0.0322,0.0322,0,0.0143,0.0161,0.0217,0.0267,0.0324,0.0342,0.0358,0.0373,0.039,0.0422,0.0393,0.0375,0.0382,0.0359,0.0332,0.034,0.0331,0.0333,0.0331,0.0329,0.0316,0.0338,0.0356,0,0,0,0,0,0.0112,0.0133,0.0178,0.023,0.0289,0.032,0.0354,0.0364,0.0398,0.0379,0.0398,0.037,0.0357,0.032,0.0328,0.0328,0.0326,0.0339,0.0325,0.0333,0.0331,0.0313,0,0,0,0,0,0,0.0092,0.0131,0.0162,0.0202,0.023,0.0275,0.0294,0.0306,0.0297,0.0333,0.0307,0.0374,0.0336,0.0348,0.0323,0.0327,0.0321,0.035,0.035,0.0335,0.0333,0.0331,0.0311,0,0,0,0,0]},{"header":{"parameterUnit":"m.s-1","parameterCategory":2,"la1":30.2991,"la2":30.254,"lo1":-89.0895,"lo2":-89.0444,"dy":0.0017,"dx":0.0017,"nx":28,"ny":28,"refTime":"2024-07-13T03:00:00:Z","depth":"4","parameterNumber":3,"parameterNumberName":"V-component_of_CURRENTS"},"data":[0,0,0,0,0,0,0,0,0,0,0,0,0,0,0,0,0,0,0,0,0,0,0,0,0,0,0,0,0,0,0,0,0,0,0,0,0,0,0,0,0,0,0,0,0,0,0,0,0,0,0,0,0,0,0,0,0,0,-0.0358,-0.0359,0,-0.0419,-0.0419,-0.042,-0.049,-0.0491,-0.0492,-0.0493,-0.055,-0.0551,-0.0551,0,0,0,0,0,0,0,0,0,0,0,0,0,-0.0285,-0.0286,-0.0358,-0.0359,-0.036,-0.0419,-0.0419,-0.042,-0.049,-0.0491,-0.0492,-0.0493,-0.055,-0.0551,-0.0552,0,0,0,0,0,0,0,0,0,0,0,0,0,-0.0328,-0.0286,-0.0358,-0.0401,-0.0405,-0.0418,-0.042,-0.0421,-0.0489,-0.0491,-0.0492,-0.0494,-0.055,-0.0551,-0.0552,-0.0526,0,0,-0.0554,-0.0555,0,0,0,0,0,0,0,0,-0.0326,-0.0331,-0.0394,-0.0398,-0.0403,-0.0448,-0.0415,-0.0456,-0.0489,-0.0458,-0.0493,-0.0495,-0.0514,-0.0518,-0.0527,-0.0529,-0.0531,-0.0554,-0.0555,-0.0555,-0.0556,0,0,0,0,0,0,0,-0.0323,-0.0329,-0.0382,-0.0395,-0.04,-0.0411,-0.0419,-0.0423,-0.0477,-0.0461,-0.0466,-0.0472,-0.0517,-0.0526,-0.0529,-0.0532,-0.0554,-0.0555,-0.0556,-0.0556,-0.0589,-0.0589,0,0,0,0,0,0,-0.0314,-0.0326,-0.038,-0.0384,-0.0367,-0.0411,-0.042,-0.0432,-0.0477,-0.0485,-0.047,-0.0475,-0.0524,-0.0528,-0.0531,-0.056,-0.0555,-0.0556,-0.0557,-0.0588,-0.0589,-0.0589,0,0,0,0,0,0,-0.0312,-0.0318,-0.0378,-0.0356,-0.0364,-0.0411,-0.0424,-0.0433,-0.0479,-0.0484,-0.0493,-0.0512,-0.0525,-0.053,-0.0559,-0.0561,-0.0556,-0.0557,-0.0588,-0.0588,-0.0589,-0.0581,0,0,0,0,0,0,-0.031,-0.0318,-0.0339,-0.0355,-0.0365,-0.0396,-0.0423,-0.0433,-0.0478,-0.0486,-0.0522,-0.0527,-0.0526,-0.0557,-0.056,-0.0562,-0.0558,-0.0587,-0.0588,-0.0589,-0.0581,-0.0582,-0.0582,0,0,0,0,0,-0.0307,-0.032,-0.034,-0.0347,-0.0388,-0.0396,-0.0402,-0.044,-0.0479,-0.0491,-0.0524,-0.0528,-0.0563,-0.0558,-0.0561,-0.0563,-0.0587,-0.0588,-0.0589,-0.0581,-0.0581,-0.0582,0,0,0,0,0,0,-0.0304,-0.0329,-0.0351,-0.0374,-0.0391,-0.0408,-0.043,-0.0459,-0.0496,-0.0519,-0.0533,-0.0539,-0.0564,-0.0567,-0.0562,-0.0575,-0.0575,-0.0577,-0.0569,-0.0569,-0.0569,-0.0558,-0.0559,0,0,0,0,0,-0.0311,-0.0329,-0.0349,-0.0371,-0.0382,-0.0416,-0.0434,-0.0459,-0.0485,-0.0507,-0.0531,-0.0554,-0.056,-0.0572,-0.0579,-0.0587,-0.058,-0.0591,-0.0591,-0.0591,-0.0585,-0.0579,-0.0578,-0.0592,-0.0591,-0.0591,0,0,-0.0316,-0.0333,-0.0346,-0.0372,-0.0394,-0.0397,-0.0432,-0.0464,-0.0475,-0.0503,-0.0542,-0.0561,-0.0565,-0.0573,-0.0584,-0.0581,-0.0584,-0.0592,-0.0592,-0.0585,-0.058,-0.0578,-0.0577,-0.0592,-0.0592,-0.0592,0,0,-0.0309,-0.0352,-0.0355,-0.0371,-0.0403,-0.0413,-0.043,-0.0464,-0.0495,-0.0522,-0.0544,-0.0569,-0.0587,-0.0585,-0.0585,-0.0593,-0.0589,-0.0601,-0.059,-0.0585,-0.0584,-0.0582,-0.057,-0.0567,-0.0598,-0.0598,-0.0598,0,-0.0316,-0.0326,-0.0357,-0.0361,-0.0375,-0.0421,-0.0423,-0.0447,-0.049,-0.0511,-0.0536,-0.0573,-0.0585,-0.0581,-0.0584,-0.0592,-0.0587,-0.0587,-0.0584,-0.0583,-0.0582,-0.0569,-0.0566,-0.0598,-0.0598,-0.0598,-0.0598,0,-0.0294,-0.0319,-0.0324,-0.034,-0.0356,-0.0371,-0.0398,-0.0431,-0.0478,-0.05,-0.0536,-0.0555,-0.0573,-0.0581,-0.0584,-0.058,-0.0579,-0.0587,-0.058,-0.0579,-0.0567,-0.0564,-0.0598,-0.0598,-0.0598,-0.0598,0,0,-0.027,-0.0301,-0.0309,-0.032,-0.0354,-0.036,-0.0383,-0.0406,-0.0433,-0.0478,-0.05,-0.052,-0.0551,-0.0552,-0.0566,-0.0563,-0.0552,-0.0571,-0.057,-0.0551,-0.0535,-0.0527,-0.0523,-0.056,-0.056,-0.056,-0.0529,0,-0.0248,-0.0247,-0.0269,-0.0278,-0.0284,-0.0331,-0.0342,-0.0378,-0.0419,-0.0452,-0.0486,-0.0508,-0.0531,-0.0544,-0.0548,-0.0555,-0.0545,-0.0559,-0.0544,-0.0543,-0.053,-0.052,-0.0558,-0.0527,-0.0526,-0.0525,-0.0525,0,-0.0221,-0.0226,-0.0227,-0.0258,-0.0266,-0.0278,-0.0321,-0.0337,-0.0387,-0.0419,-0.0453,-0.0484,-0.0494,-0.0515,-0.0518,-0.0528,-0.0527,-0.053,-0.0529,-0.052,-0.053,-0.0529,-0.052,-0.0521,-0.0521,-0.0521,-0.0522,0,-0.0185,-0.0203,-0.0205,-0.0216,-0.0247,-0.027,-0.0291,-0.0339,-0.0352,-0.0399,-0.0411,-0.0445,-0.0455,-0.0468,-0.0485,-0.0501,-0.048,-0.0503,-0.049,-0.0489,-0.0509,-0.0511,-0.049,-0.049,-0.049,-0.049,-0.049,0,-0.0152,-0.0165,-0.0197,-0.0201,-0.0214,-0.0249,-0.027,-0.0302,-0.0333,-0.0331,-0.0392,-0.0388,-0.0444,-0.0448,-0.0467,-0.0465,-0.0463,-0.0479,-0.0479,-0.0507,-0.0509,-0.0507,-0.0509,-0.0489,-0.0489,-0.0489,-0.049,0,-0.0128,-0.0145,-0.0154,-0.0187,-0.02,-0.0217,-0.0248,-0.0254,-0.029,-0.0287,-0.0293,-0.0337,-0.0349,-0.0391,-0.0406,-0.0431,-0.0435,-0.0429,-0.0442,-0.0444,-0.0454,-0.0456,-0.0422,-0.0421,-0.0421,-0.042,-0.042,0,-0.0116,-0.0117,-0.0143,-0.0148,-0.0172,-0.0195,-0.0202,-0.0234,-0.0224,-0.0242,-0.0222,-0.0253,-0.0281,-0.0296,-0.0349,-0.0385,-0.0393,-0.0397,-0.0444,-0.0442,-0.0446,-0.0449,-0.0452,-0.0419,-0.0419,-0.0419,-0.0419,0,-0.0099,-0.0117,-0.0121,-0.0121,-0.0135,-0.0133,-0.0142,-0.0128,-0.0143,-0.0162,-0.0157,-0.0201,-0.0217,-0.0274,-0.0302,-0.0328,-0.0404,-0.0393,-0.0395,-0.0438,-0.0439,-0.0443,-0.0447,-0.0417,-0.0417,-0.0417,-0.0418,0,-0.0099,-0.0098,-0.01,-0.0102,-0.01,-0.0084,-0.0092,-0.008,-0.0077,-0.0094,-0.0083,-0.0139,-0.0175,-0.0239,-0.0256,-0.0296,-0.0321,-0.0344,-0.0349,-0.0352,-0.0354,-0.0346,-0.0285,0,0,0,0,0,-0.0098,-0.0089,-0.0079,-0.0075,-0.0063,-0.0066,-0.005,-0.0052,-0.0053,-0.0038,-0.0065,-0.0082,-0.0155,-0.0189,-0.0225,-0.0254,-0.0328,-0.0299,-0.0356,-0.0407,-0.0409,-0.0425,0,0,0,0,0,0,-0.0096,-0.0088,-0.0073,-0.0047,-0.004,-0.0024,-0.0019,-0.0021,-0.0011,-0.0025,-0.0057,-0.0093,-0.0155,-0.0131,-0.0227,-0.0241,-0.0283,-0.0337,-0.0338,-0.0406,-0.0408,-0.041,-0.0427,0,0,0,0,0]}]]